TimeEST,TemperatureF,Dew PointF,Humidity,Sea Level PressureIn,VisibilityMPH,Wind Direction,Wind SpeedMPH,Gust SpeedMPH,PrecipitationIn,Events,Conditions,WindDirDegrees,DateUTC
12:51 AM,48.9,41.0,74,29.78,10.0,WNW,3.5,-,N/A,,Mostly Cloudy,300,2013-11-03 04:51:00
1:51 AM,48.0,41.0,77,29.79,10.0,North,8.1,-,N/A,,Mostly Cloudy,350,2013-11-03 05:51:00
1:51 AM,46.0,39.9,79,29.82,10.0,North,9.2,-,N/A,,Scattered Clouds,10,2013-11-03 06:51:00
2:51 AM,45.0,35.1,68,29.85,10.0,North,16.1,-,N/A,,Mostly Cloudy,10,2013-11-03 07:51:00
3:51 AM,43.0,32.0,65,29.90,10.0,North,11.5,-,N/A,,Mostly Cloudy,10,2013-11-03 08:51:00
4:51 AM,42.1,30.9,65,29.94,10.0,North,13.8,-,N/A,,Mostly Cloudy,10,2013-11-03 09:51:00
5:51 AM,42.1,30.9,65,29.96,10.0,North,13.8,19.6,N/A,,Mostly Cloudy,10,2013-11-03 10:51:00
6:51 AM,42.1,30.9,65,30.01,10.0,North,9.2,-,N/A,,Overcast,10,2013-11-03 11:51:00
7:51 AM,43.0,30.9,62,30.05,10.0,NNE,15.0,-,N/A,,Mostly Cloudy,20,2013-11-03 12:51:00
8:51 AM,44.1,28.9,55,30.07,10.0,NNE,13.8,23.0,N/A,,Mostly Cloudy,20,2013-11-03 13:51:00
9:51 AM,44.1,28.0,53,30.09,10.0,NNE,18.4,-,N/A,,Mostly Cloudy,30,2013-11-03 14:51:00
10:51 AM,46.0,28.0,50,30.12,10.0,NNE,13.8,-,N/A,,Mostly Cloudy,20,2013-11-03 15:51:00
11:51 AM,48.0,28.0,46,30.12,10.0,North,11.5,-,N/A,,Mostly Cloudy,10,2013-11-03 16:51:00
12:51 PM,48.0,26.1,42,30.12,10.0,North,10.4,-,N/A,,Mostly Cloudy,360,2013-11-03 17:51:00
1:51 PM,48.0,21.9,36,30.14,10.0,NW,15.0,-,N/A,,Mostly Cloudy,310,2013-11-03 18:51:00
2:51 PM,46.0,19.0,34,30.17,10.0,NW,9.2,-,N/A,,Mostly Cloudy,320,2013-11-03 19:51:00
3:51 PM,46.0,17.1,31,30.20,10.0,NNW,10.4,-,N/A,,Mostly Cloudy,340,2013-11-03 20:51:00
4:51 PM,42.1,16.0,35,30.23,10.0,NNW,13.8,-,N/A,,Scattered Clouds,330,2013-11-03 21:51:00
5:51 PM,39.0,12.9,34,30.27,10.0,NNW,10.4,18.4,N/A,,Clear,330,2013-11-03 22:51:00
6:51 PM,37.0,10.9,34,30.32,10.0,NNW,8.1,-,N/A,,Clear,340,2013-11-03 23:51:00
7:51 PM,36.0,12.9,39,30.35,10.0,NNW,8.1,-,N/A,,Clear,340,2013-11-04 00:51:00
8:51 PM,34.0,16.0,48,30.38,10.0,North,9.2,-,N/A,,Clear,360,2013-11-04 01:51:00
9:51 PM,33.1,16.0,50,30.41,10.0,North,9.2,-,N/A,,Clear,360,2013-11-04 02:51:00
10:51 PM,32.0,14.0,48,30.42,10.0,North,6.9,-,N/A,,Clear,360,2013-11-04 03:51:00